Hourly Weather Roundup
Issued by NWS Central Illinois

Home | Current Version | Previous Version | Text Only | Print | Product List | Glossary On
Versions: 1 2 3 4 5 6 7 8 9 10 11 12 13 14 15 16 17 18 19 20 21 22 23 24 25 26 27 28 29 30 31 32 33 34 35 36 37 38 39 40 41 42 43 44 45 46 47 48 49 50
000
NZUS43 KILX 281710
HWRILX

Area Weather Roundup
National Weather Service Lincoln IL
1200 PM CDT FRI APR 28 2017

NOTE:  "FAIR" indicates few or no clouds below 12,000 feet, with
       no sigificant weather and/or obstructions to visibility.


CITY           SKY/WX    TMP DP  RH WIND       PRES   REMARKS
Bloomington    CLOUDY    54  48  80 SE20      29.89F
Champaign      CLOUDY    55  50  83 SE17      29.91F
Danville       CLOUDY    54  49  83 SE9       29.90F
Decatur        CLOUDY    56  53  90 SE17G23   29.89S
Effingham      CLOUDY    54  53  97 NE6       29.90F
Flora          CLOUDY    60  55  83 E13G18    29.88F
Galesburg      DRIZZLE   48  45  89 NE9       29.86F
Jacksonville   LGT RAIN  54  52  93 SE7       29.84S
Lacon          CLOUDY    54  50  86 E8        29.89F
Lawrenceville  CLOUDY    58  52  80 E10       29.93F
Litchfield     LGT RAIN  53  52  96 SE13G20   29.83F
$$


CITY           SKY/WX    TMP DP  RH WIND       PRES   REMARKS
Lincoln        CLOUDY    56  51  84 SE14      29.89R
Macomb         RAIN      50  49  98 NE10      29.87S
Mattoon        LGT RAIN  52  50  93 SE14G24   29.90F
Mt Carmel AP   CLOUDY    58  51  78 E12       29.91F
Olney-Noble AP CLOUDY    57  56  98 E6G17     29.89F
Paris AP       CLOUDY    53  50  90 SE14      29.94F
Peoria         RAIN      53  51  93 SE6       29.89S FOG
Pontiac        CLOUDY    55  51  86 SE8       29.91F
Rantoul        CLOUDY    56  51  85 SE18      29.92S
Robinson       CLOUDY    55  51  83 E12       29.94F
Springfield    CLOUDY    57  53  86 SE9       29.86F
Taylorville    CLOUDY    55  51  86 SE12      29.85F
$$

...REGIONAL REPORTS...


CITY           SKY/WX    TMP DP  RH WIND       PRES   REMARKS
Chicago O`Hare CLOUDY    58  45  62 S10       29.93F
Kankakee       LGT RAIN  56  47  74 SE12      29.95S
Moline         LGT RAIN  44  39  82 NE10      29.90F
Mount Sterling LGT RAIN  53  52  96 SE10      29.81F
Mount Vernon   CLOUDY    59  53  80 E9        29.86F
Pittsfield     RAIN      55  54  97 SE8       29.84R
Quincy         LGT RAIN  54  53  97 SE10      29.79F
Rockford       CLOUDY    50  37  61 SE3       29.96R
$$


CITY           SKY/WX    TMP DP  RH WIND       PRES   REMARKS
Burlington     LGT RAIN  45  43  93 NE12      29.84F FOG
Cedar Rapids   LGT RAIN  41  36  82 NE10      29.90S WCI  35
Des Moines     LGT RAIN  39  35  86 NE20      29.85F WCI  29
Kirksville     CLOUDY    48  48 100 NE10      29.76F FOG
Ottumwa        LGT RAIN  41  39  93 NE18      29.82F FOG     WCI  32
St Louis       TSTM      57  53  86 SE9       29.84R
$$


CITY           SKY/WX    TMP DP  RH WIND       PRES   REMARKS
Terre Haute    CLOUDY    55  49  80 SE14      29.97F
Evansville     CLOUDY    61  52  72 E7        29.92F
Indianapolis   CLOUDY    54  48  80 E8        29.99F
Lafayette      CLOUDY    55  48  77 SE10      29.95F
Madison        PTSUNNY   46  32  58 VRB3      29.92F
Milwaukee      PTSUNNY   53  37  54 W9        29.94R
$$





USA.gov is the U.S. government's official web portal to all federal, state and local government web resources and services.